Home > Weather > Szczecin > Past weeks

Flag for Poland Weather for the Past 2 Weeks in Szczecin, Poland

Now
43 °F

Clear.


Feels Like: 37 °F
Forecast: 39 / 47 °F
Wind: 9 mph from South

Location: Szczecin Airport

Current Time: Feb 6, 2016 at 7:48:15 PM

Latest Report: Feb 6, 2016 at 7:30 PM


Visibility: 10 mi

Pressure: 29.83 "Hg

Humidity: 87%

Dew point: 39 °F

Location of SzczecinLocation

Historic Weather in Szczecin — Graph

°F

Szczecin Temperature Yesterday

Maximum temperature yesterday: 39 °F (at 2:30 PM)
Minimum temperature yesterday: 30 °F (at 1:00 AM)
Average temperature yesterday: 35 °F

High & Low Weather Summary for the Past Weeks

 TemperatureHumidityPressure
High50 °F (Jan 27, 1:30 PM)100% (Jan 23, 3:30 PM)30.45 "Hg (Jan 23, 3:30 PM)
Low18 °F (Jan 23, 1:30 AM)54% (Feb 2, 3:00 PM)29.47 "Hg (Jan 30, 7:30 PM)
Average40 °F85%29.95 "Hg
* Reported Jan 22 7:00 PM — Feb 6 7:00 PM, Szczecin, Weather by CustomWeather, © 2016

Note: Actual official high and low records may vary slightly from our data, if they occured in-between our weather recording intervals... More about our weather records

Advertising

Szczecin Weather History for the Previous 24 Hours

 ConditionsComfort  
Time TempWeatherWind HumidityBarometerVisibility
7:00 PM
Sat, Feb 6
45 °FClear.12 mph81%29.83 "Hg10 mi
6:30 PM45 °FClear.9 mph81%29.83 "Hg10 mi
6:00 PM43 °FClear.10 mph87%29.83 "Hg10 mi
5:30 PM45 °FClear.9 mph87%29.86 "Hg10 mi
5:00 PM45 °FClear.9 mph87%29.86 "Hg10 mi
4:30 PM46 °FSunny.12 mph82%29.86 "Hg10 mi
4:00 PM46 °FSunny.10 mph82%29.86 "Hg10 mi
3:30 PM46 °FSunny.12 mph82%29.89 "Hg10 mi
3:00 PM46 °FSunny.12 mph82%29.89 "Hg10 mi
2:30 PM46 °FPassing clouds.12 mph82%29.92 "HgN/A
2:00 PM46 °FSunny.13 mph87%29.92 "Hg10 mi
1:30 PM46 °FPassing clouds.14 mph87%29.92 "HgN/A
1:00 PM46 °FPartly sunny.12 mph87%29.95 "HgN/A
12:30 PM45 °FPartly sunny.12 mph93%29.95 "HgN/A
12:00 PM45 °FBroken clouds.12 mph93%29.98 "HgN/A
11:30 AM45 °FPartly sunny.10 mph93%29.98 "HgN/A
11:00 AM45 °FPartly sunny.9 mph93%29.98 "Hg4 mi
10:30 AM45 °FFog.9 mph93%30.01 "Hg3 mi
10:00 AM45 °FFog.8 mph93%30.01 "Hg2 mi
9:30 AM43 °FFog.6 mph100%30.01 "Hg2 mi
9:00 AM43 °FFog.6 mph100%30.04 "Hg2 mi
8:30 AM43 °FFog.6 mph93%30.04 "Hg2 mi
8:00 AM43 °FFog.6 mph93%30.04 "Hg2 mi
7:30 AM43 °FFog.7 mph93%30.04 "Hg1 mi
7:00 AM41 °FFog.6 mph100%30.04 "Hg1 mi
6:30 AM41 °FLight rain. Fog.8 mph100%30.04 "Hg1 mi
6:00 AM41 °FFog.6 mph100%30.04 "Hg1 mi
5:00 AM41 °FFog.3 mph100%30.04 "Hg2 mi
4:30 AM41 °FFog.6 mph100%30.07 "Hg2 mi
4:00 AM41 °FFog.6 mph100%30.07 "Hg2 mi
3:00 AM41 °FMostly cloudy.6 mph100%30.07 "Hg1 mi
2:30 AM41 °FPassing clouds.7 mph100%30.07 "Hg1 mi
1:30 AM41 °FFog.7 mph93%30.07 "Hg1 mi
1:00 AM39 °FFog.7 mph100%30.07 "Hg1 mi
12:30 AM39 °FDrizzle. Fog.8 mph100%30.07 "Hg2 mi
12:00 AM39 °FDrizzle. Fog.6 mph93%30.07 "Hg2 mi
11:30 PM
Fri, Feb 5
39 °FFog.7 mph93%30.07 "Hg1 mi
11:00 PM39 °FFog.6 mph93%30.07 "Hg2 mi
10:30 PM37 °FFog.7 mph100%30.09 "Hg3 mi
10:00 PM37 °FPassing clouds.6 mph100%30.09 "Hg4 mi
9:30 PM37 °FMostly cloudy.7 mph93%30.09 "Hg4 mi
9:00 PM37 °FPartly cloudy.7 mph93%30.09 "HgN/A
8:30 PM37 °FPassing clouds.8 mph93%30.09 "HgN/A
8:00 PM37 °FPartly cloudy.7 mph93%30.09 "HgN/A
7:30 PM37 °FPassing clouds.8 mph93%30.12 "HgN/A
7:00 PM37 °FLight rain. Passing clouds.6 mph93%30.12 "Hg5 mi
Weather by CustomWeather, © 2016

See weather overviewHow to use our weather pages